| time (UTC) | temp F | wind direction | speed MPH | gust MPH | rain 1hr in | rain 24hr in | rain mn in | humidity % | barometer mb |
| 20260906064531 | 80 | 207 | 2.0 | 4.0 | 0.00 | 0.00 | 0.00 | 78 | 1012.1 |
| 20260906063104 | 81 | 188 | 2.0 | 4.0 | 0.00 | 0.00 | 0.00 | 78 | 1012.2 |
| 20260906061543 | 81 | 201 | 1.0 | 2.0 | 0.00 | 0.00 | 0.00 | 77 | 1012.4 |
| 20260906060008 | 81 | 181 | 1.0 | 4.0 | 0.00 | 0.00 | 0.00 | 76 | 1012.4 |
| 20260906054543 | 82 | 190 | 2.0 | 5.0 | 0.00 | 0.00 | 0.00 | 75 | 1012.4 |
| 20260906053013 | 82 | 181 | 3.0 | 5.0 | 0.00 | 0.00 | 0.00 | 74 | 1012.3 |
| 20260906051540 | 82 | 196 | 1.0 | 4.0 | 0.00 | 0.00 | 0.00 | 73 | 1012.4 |
| 20260906050010 | 83 | 207 | 1.0 | 6.0 | 0.00 | 0.00 | 0.00 | 72 | 1012.4 |
| 20260906044541 | 83 | 146 | 2.0 | 6.0 | 0.00 | 0.00 | 0.00 | 71 | 1012.5 |
| 20260906043016 | 83 | 142 | 4.0 | 7.0 | 0.00 | 0.00 | 0.00 | 71 | 1012.3 |
| 20260906041554 | 84 | 183 | 2.0 | 5.0 | 0.00 | 0.00 | 0.00 | 71 | 1012.1 |
| 20260906040015 | 84 | 151 | 1.0 | 6.0 | 0.00 | 0.00 | 0.00 | 70 | 1012.2 |
| 20260906034549 | 85 | 126 | 2.0 | 8.0 | 0.00 | 0.00 | 0.00 | 69 | 1012.2 |
| 20260906033022 | 85 | 134 | 2.0 | 10.0 | 0.00 | 0.00 | 0.00 | 67 | 1012.1 |
| 20260906031556 | 86 | 130 | 4.0 | 11.0 | 0.00 | 0.00 | 0.00 | 65 | 1012.0 |
| 20260906030034 | 86 | 85 | 5.0 | 12.0 | 0.00 | 0.00 | 0.00 | 63 | 1011.7 |
| 20260906024623 | 87 | 115 | 6.0 | 14.0 | 0.00 | 0.00 | 0.00 | 62 | 1011.4 |
| 20260906023033 | 87 | 158 | 4.0 | 10.0 | 0.00 | 0.00 | 0.00 | 60 | 1011.0 |
| 20260906021503 | 87 | 114 | 5.0 | 12.0 | 0.00 | 0.00 | 0.00 | 58 | 1010.7 |
| 20260906020035 | 88 | 103 | 5.0 | 15.0 | 0.00 | 0.00 | 0.00 | 57 | 1010.5 |
| 20260906014522 | 88 | 135 | 4.0 | 10.0 | 0.00 | 0.00 | 0.00 | 56 | 1010.3 |
| 20260906013042 | 89 | 123 | 4.0 | 11.0 | 0.00 | 0.00 | 0.00 | 56 | 1010.1 |
| 20260906011514 | 89 | 113 | 6.0 | 12.0 | 0.00 | 0.00 | 0.00 | 54 | 1010.0 |
| 20260906010122 | 90 | 108 | 8.0 | 13.0 | 0.00 | 0.00 | 0.00 | 52 | 1009.9 |
| 20260906004522 | 92 | 122 | 11.0 | 18.0 | 0.00 | 0.00 | 0.00 | 49 | 1009.9 |
| 20260906003058 | 93 | 119 | 7.0 | 15.0 | 0.00 | 0.00 | 0.00 | 46 | 1009.6 |
| 20260906001546 | 95 | 129 | 5.0 | 10.0 | 0.00 | 0.00 | 0.00 | 43 | 1009.6 |
| 20260906000104 | 95 | 70 | 5.0 | 12.0 | 0.00 | 0.00 | 0.00 | 41 | 1009.6 |
| 20260905234534 | 96 | 134 | 4.0 | 10.0 | 0.00 | 0.00 | 0.00 | 41 | 1009.5 |
| 20260905233005 | 96 | 73 | 5.0 | 12.0 | 0.00 | 0.00 | 0.00 | 41 | 1009.4 |
| 20260905231543 | 96 | 53 | 6.0 | 16.0 | 0.00 | 0.00 | 0.00 | 42 | 1009.3 |
| 20260905230007 | 94 | 94 | 5.0 | 15.0 | 0.00 | 0.00 | 0.00 | 43 | 1009.2 |
| 20260905224544 | 95 | 123 | 8.0 | 15.0 | 0.00 | 0.00 | 0.00 | 43 | 1009.3 |
| 20260905223018 | 98 | 103 | 7.0 | 11.0 | 0.00 | 0.00 | 0.00 | 32 | 1009.1 |
| 20260905221550 | 100 | 68 | 4.0 | 10.0 | 0.00 | 0.00 | 0.00 | 33 | 1009.1 |
| 20260905220007 | 100 | 98 | 4.0 | 9.0 | 0.00 | 0.00 | 0.00 | 32 | 1009.1 |
| 20260905214539 | 99 | 82 | 3.0 | 10.0 | 0.00 | 0.00 | 0.00 | 33 | 1009.2 |
| 20260905213009 | 98 | 145 | 5.0 | 12.0 | 0.00 | 0.00 | 0.00 | 35 | 1009.3 |
| 20260905211545 | 99 | 183 | 5.0 | 13.0 | 0.00 | 0.00 | 0.00 | 33 | 1009.2 |
| 20260905210012 | 102 | 108 | 5.0 | 10.0 | 0.00 | 0.00 | 0.00 | 28 | 1009.3 |
| 20260905204543 | 103 | 166 | 3.0 | 7.0 | 0.00 | 0.00 | 0.00 | 28 | 1009.4 |
| 20260905203020 | 101 | 184 | 2.0 | 9.0 | 0.00 | 0.00 | 0.00 | 27 | 1009.9 |
| 20260905201557 | 101 | 205 | 6.0 | 10.0 | 0.00 | 0.00 | 0.00 | 28 | 1010.1 |
| 20260905200015 | 100 | 227 | 3.0 | 12.0 | 0.00 | 0.00 | 0.00 | 29 | 1010.5 |
| 20260905194549 | 101 | 108 | 5.0 | 10.0 | 0.00 | 0.00 | 0.00 | 29 | 1010.7 |
| 20260905193023 | 101 | 216 | 3.0 | 13.0 | 0.00 | 0.00 | 0.00 | 30 | 1010.9 |
| 20260905191552 | 101 | 82 | 4.0 | 12.0 | 0.00 | 0.00 | 0.00 | 31 | 1011.2 |
| 20260905190019 | 99 | 246 | 2.0 | 9.0 | 0.00 | 0.00 | 0.00 | 34 | 1011.3 |
| 20260905184552 | 97 | 317 | 2.0 | 7.0 | 0.00 | 0.00 | 0.00 | 38 | 1011.7 |
| 20260905183021 | 99 | 264 | 0.0 | 6.0 | 0.00 | 0.00 | 0.00 | 36 | 1012.0 |
| 20260905181553 | 97 | 236 | 2.0 | 5.0 | 0.00 | 0.00 | 0.00 | 40 | 1012.3 |
| 20260905180025 | 97 | 207 | 2.0 | 8.0 | 0.00 | 0.00 | 0.00 | 40 | 1012.7 |
| 20260905174556 | 97 | 114 | 3.0 | 8.0 | 0.00 | 0.00 | 0.00 | 41 | 1012.8 |
| 20260905173028 | 93 | 244 | 1.0 | 7.0 | 0.00 | 0.00 | 0.00 | 46 | 1013.0 |
| 20260905171603 | 95 | 174 | 4.0 | 7.0 | 0.00 | 0.00 | 0.00 | 46 | 1013.3 |
| 20260905170031 | 95 | 143 | 4.0 | 8.0 | 0.00 | 0.00 | 0.00 | 47 | 1013.6 |
| 20260905164501 | 95 | 178 | 4.0 | 7.0 | 0.00 | 0.00 | 0.00 | 46 | 1013.6 |
| 20260905163034 | 95 | 84 | 4.0 | 12.0 | 0.00 | 0.00 | 0.00 | 47 | 1013.6 |
| 20260905161506 | 93 | 196 | 5.0 | 10.0 | 0.00 | 0.00 | 0.00 | 48 | 1013.7 |
| 20260905160034 | 91 | 102 | 1.0 | 5.0 | 0.00 | 0.00 | 0.00 | 58 | 1013.7 |
| 20260905154508 | 90 | 234 | 3.0 | 7.0 | 0.00 | 0.00 | 0.00 | 58 | 1013.8 |
| 20260905153039 | 89 | 184 | 2.0 | 7.0 | 0.00 | 0.00 | 0.00 | 62 | 1013.9 |
| 20260905151514 | 91 | 148 | 2.0 | 6.0 | 0.00 | 0.00 | 0.00 | 60 | 1013.8 |
| 20260905150038 | 90 | 167 | 3.0 | 6.0 | 0.00 | 0.00 | 0.00 | 63 | 1013.7 |
| 20260905144517 | 89 | 223 | 2.0 | 6.0 | 0.00 | 0.00 | 0.00 | 65 | 1013.8 |
| 20260905143039 | 88 | 268 | 1.0 | 4.0 | 0.00 | 0.00 | 0.00 | 68 | 1013.8 |
| 20260905141507 | 85 | 143 | 0.0 | 3.0 | 0.00 | 0.00 | 0.00 | 75 | 1013.7 |
| 20260905140043 | 83 | 86 | 1.0 | 4.0 | 0.00 | 0.00 | 0.00 | 80 | 1013.7 |
| 20260905134504 | 81 | 76 | 1.0 | 4.0 | 0.00 | 0.00 | 0.00 | 83 | 1013.6 |
| 20260905133035 | 80 | 66 | 0.0 | 0.0 | 0.00 | 0.00 | 0.00 | 86 | 1013.4 |
| 20260905131505 | 78 | 56 | 0.0 | 0.0 | 0.00 | 0.00 | 0.00 | 86 | 1013.4 |
| 20260905130040 | 76 | 56 | 0.0 | 0.0 | 0.00 | 0.00 | 0.00 | 86 | 1013.3 |
| 20260905124515 | 75 | 122 | 0.0 | 1.0 | 0.00 | 0.00 | 0.00 | 86 | 1013.2 |
| 20260905123041 | 75 | 122 | 0.0 | 1.0 | 0.00 | 0.00 | 0.00 | 85 | 1012.9 |
| 20260905121512 | 75 | 122 | 0.0 | 0.0 | 0.00 | 0.00 | 0.00 | 85 | 1012.8 |
| 20260905120046 | 75 | 122 | 0.0 | 0.0 | 0.00 | 0.00 | 0.00 | 85 | 1012.6 |
| 20260905114521 | 75 | 122 | 0.0 | 1.0 | 0.00 | 0.00 | 0.00 | 85 | 1012.7 |
| 20260905113057 | 75 | 122 | 0.0 | 0.0 | 0.00 | 0.00 | 0.00 | 85 | 1012.5 |
| 20260905111533 | 75 | 122 | 0.0 | 0.0 | 0.00 | 0.00 | 0.00 | 85 | 1012.5 |
| 20260905110104 | 75 | 122 | 0.0 | 1.0 | 0.00 | 0.00 | 0.00 | 85 | 1012.3 |
| 20260905104532 | 75 | 122 | 0.0 | 0.0 | 0.00 | 0.00 | 0.00 | 85 | 1012.1 |
| 20260905103004 | 75 | 122 | 0.0 | 0.0 | 0.00 | 0.00 | 0.00 | 85 | 1012.1 |
| 20260905101538 | 75 | 122 | 0.0 | 1.0 | 0.00 | 0.00 | 0.00 | 84 | 1012.1 |
| 20260905100007 | 75 | 122 | 0.0 | 0.0 | 0.00 | 0.00 | 0.00 | 84 | 1012.0 |
| 20260905094543 | 75 | 122 | 0.0 | 0.0 | 0.00 | 0.00 | 0.00 | 84 | 1012.0 |
| 20260905093012 | 76 | 122 | 0.0 | 1.0 | 0.00 | 0.00 | 0.00 | 84 | 1011.8 |
| 20260905091544 | 76 | 122 | 0.0 | 0.0 | 0.00 | 0.00 | 0.00 | 84 | 1012.1 |
| 20260905090022 | 76 | 122 | 0.0 | 0.0 | 0.00 | 0.00 | 0.00 | 83 | 1012.1 |
| 20260905084544 | 77 | 122 | 0.0 | 0.0 | 0.00 | 0.00 | 0.00 | 83 | 1012.0 |
| 20260905083014 | 77 | 122 | 0.0 | 0.0 | 0.00 | 0.00 | 0.00 | 83 | 1012.0 |
| 20260905081544 | 77 | 122 | 0.0 | 0.0 | 0.00 | 0.00 | 0.00 | 82 | 1012.1 |
| 20260905080014 | 78 | 122 | 0.0 | 0.0 | 0.00 | 0.00 | 0.00 | 82 | 1012.2 |
| 20260905074547 | 78 | 122 | 0.0 | 0.0 | 0.00 | 0.00 | 0.00 | 81 | 1012.4 |
| 20260905073017 | 79 | 122 | 0.0 | 0.0 | 0.00 | 0.00 | 0.00 | 81 | 1012.5 |
| 20260905071545 | 79 | 122 | 0.0 | 1.0 | 0.00 | 0.00 | 0.00 | 81 | 1012.8 |
| 20260905070119 | 79 | 122 | 0.0 | 1.0 | 0.00 | 0.00 | 0.00 | 81 | 1012.9 |